• In Netherlands
  • List of Countries
  • For 7 days
  • Water Temperature
  • Satellite Maps
  • Weather Map
  • Weather Widgets
  • user-avatar
    Login

    Hourly Weather Barra

    Today, 17 August, Thursday

    Time Temperature Precipitation Wind Pressure Humidity
    00:00 +19°C° 0 mm 1 mps 750 mmHg 96%
    01:00 +19°C° 0 mm 1 mps 750 mmHg 96%
    02:00 +19°C° 0 mm 1 mps 750 mmHg 97%
    03:00 +19°C° 0 mm 1 mps 750 mmHg 97%
    04:00 +19°C° 0 mm 1 mps 749 mmHg 97%
    05:00 +19°C° 0 mm 1 mps 750 mmHg 97%
    06:00 +19°C° 0 mm 1 mps 750 mmHg 97%
    07:00 +19°C° 0 mm 1 mps 750 mmHg 97%
    08:00 +22°C° 0 mm 1 mps 750 mmHg 84%
    09:00 +25°C° 0 mm 1 mps 750 mmHg 71%
    10:00 +28°C° 0 mm 1 mps 750 mmHg 58%
    11:00 +29°C° 0 mm 1 mps 750 mmHg 54%
    12:00 +30°C° 0 mm 1 mps 750 mmHg 50%
    13:00 +31°C° 0 mm 2 mps 749 mmHg 45%
    14:00 +30°C° 0 mm 2 mps 749 mmHg 48%
    15:00 +30°C° 0 mm 2 mps 749 mmHg 50%
    16:00 +29°C° 0 mm 2 mps 748 mmHg 52%
    17:00 +27°C° 0 mm 1 mps 749 mmHg 64%
    18:00 +24°C° 0 mm 1 mps 749 mmHg 77%
    19:00 +21°C° 0 mm 1 mps 749 mmHg 89%
    20:00 +21°C° 0 mm 1 mps 749 mmHg 91%
    21:00 +20°C° 0 mm 1 mps 750 mmHg 94%
    22:00 +20°C° 0 mm 1 mps 750 mmHg 96%
    23:00 +19°C° 0 mm 1 mps 750 mmHg 96%

    Tomorrow, 18 August, Friday

    Time Temperature Precipitation Wind Pressure Humidity
    00:00 +19°C° 0 mm 1 mps 750 mmHg 96%
    01:00 +19°C° 0 mm 1 mps 750 mmHg 96%
    02:00 +19°C° 0 mm 1 mps 750 mmHg 96%
    03:00 +18°C° 0 mm 1 mps 750 mmHg 95%
    04:00 +18°C° 0 mm 1 mps 750 mmHg 95%
    05:00 +18°C° 0 mm 1 mps 750 mmHg 94%
    06:00 +18°C° 0 mm 1 mps 750 mmHg 94%
    07:00 +18°C° 0 mm 1 mps 751 mmHg 93%
    08:00 +22°C° 0 mm 1 mps 751 mmHg 80%
    09:00 +25°C° 0 mm 1 mps 751 mmHg 66%
    10:00 +28°C° 0 mm 2 mps 752 mmHg 52%
    11:00 +29°C° 0 mm 2 mps 751 mmHg 48%
    12:00 +30°C° 0 mm 2 mps 751 mmHg 44%
    13:00 +31°C° 0 mm 2 mps 751 mmHg 40%
    14:00 +31°C° 0 mm 2 mps 750 mmHg 42%
    15:00 +30°C° 0 mm 2 mps 750 mmHg 44%
    16:00 +30°C° 0 mm 2 mps 750 mmHg 45%
    17:00 +27°C° 0 mm 2 mps 750 mmHg 57%
    18:00 +25°C° 0 mm 1 mps 750 mmHg 69%
    19:00 +22°C° 0 mm 1 mps 751 mmHg 81%
    20:00 +21°C° 0 mm 1 mps 751 mmHg 82%
    21:00 +21°C° 0 mm 1 mps 752 mmHg 84%
    22:00 +21°C° 0 mm 1 mps 752 mmHg 85%
    23:00 +20°C° 0 mm 1 mps 752 mmHg 87%

    Day after tomorrow, 19 August, Saturday

    Time Temperature Precipitation Wind Pressure Humidity
    00:00 +19°C° 0 mm 2 mps 752 mmHg 88%
    01:00 +19°C° 0 mm 2 mps 752 mmHg 89%
    02:00 +19°C° 0 mm 2 mps 752 mmHg 91%
    03:00 +19°C° 0 mm 2 mps 752 mmHg 92%
    04:00 +18°C° 0 mm 2 mps 752 mmHg 94%
    05:00 +18°C° 0 mm 2 mps 752 mmHg 93%
    06:00 +18°C° 0 mm 2 mps 752 mmHg 92%
    07:00 +18°C° 0 mm 3 mps 753 mmHg 92%
    08:00 +21°C° 0 mm 3 mps 753 mmHg 79%
    09:00 +25°C° 0 mm 3 mps 754 mmHg 67%
    10:00 +27°C° 0 mm 4 mps 754 mmHg 54%
    11:00 +28°C° 0 mm 4 mps 753 mmHg 50%
    12:00 +29°C° 0 mm 5 mps 753 mmHg 47%
    13:00 +30°C° 0 mm 5 mps 752 mmHg 43%
    14:00 +29°C° 0 mm 5 mps 752 mmHg 46%
    15:00 +28°C° 0 mm 5 mps 751 mmHg 50%
    16:00 +27°C° 0 mm 5 mps 751 mmHg 53%
    17:00 +25°C° 0 mm 4 mps 751 mmHg 62%
    18:00 +22°C° 0 mm 3 mps 752 mmHg 70%
    19:00 +20°C° 0 mm 3 mps 752 mmHg 78%
    20:00 +19°C° 0 mm 3 mps 753 mmHg 81%
    21:00 +19°C° 0 mm 3 mps 753 mmHg 84%
    22:00 +18°C° 0 mm 3 mps 754 mmHg 87%
    23:00 +18°C° 0 mm 3 mps 754 mmHg 88%

    20 August, Sunday

    Time Temperature Precipitation Wind Pressure Humidity
    00:00 +18°C° 0 mm 3 mps 753 mmHg 89%
    01:00 +17°C° 0 mm 3 mps 753 mmHg 90%
    02:00 +17°C° 0 mm 3 mps 753 mmHg 90%
    03:00 +17°C° 0 mm 3 mps 753 mmHg 89%
    04:00 +16°C° 0 mm 3 mps 752 mmHg 89%
    05:00 +15°C° 0 mm 4 mps 753 mmHg 82%
    06:00 +15°C° 0 mm 4 mps 753 mmHg 76%
    07:00 +14°C° 0 mm 4 mps 754 mmHg 69%
    08:00 +17°C° 0 mm 5 mps 754 mmHg 57%
    09:00 +20°C° 0 mm 5 mps 754 mmHg 45%
    10:00 +23°C° 0 mm 5 mps 754 mmHg 32%
    11:00 +25°C° 0 mm 5 mps 754 mmHg 31%
    12:00 +25°C° 0 mm 5 mps 753 mmHg 30%
    13:00 +26°C° 0 mm 5 mps 752 mmHg 29%
    14:00 +26°C° 0 mm 4 mps 752 mmHg 30%
    15:00 +25°C° 0 mm 4 mps 751 mmHg 30%
    16:00 +25°C° 0 mm 4 mps 751 mmHg 31%
    17:00 +22°C° 0 mm 3 mps 751 mmHg 39%
    18:00 +19°C° 0 mm 2 mps 752 mmHg 47%
    19:00 +16°C° 0 mm 2 mps 752 mmHg 56%
    20:00 +16°C° 0 mm 2 mps 752 mmHg 59%
    21:00 +16°C° 0 mm 2 mps 753 mmHg 62%
    22:00 +14°C° 0 mm 3 mps 753 mmHg 65%
    23:00 +14°C° 0 mm 3 mps 753 mmHg 67%

    21 August, Monday

    Time Temperature Precipitation Wind Pressure Humidity
    00:00 +14°C° 0 mm 3 mps 752 mmHg 69%
    01:00 +14°C° 0 mm 3 mps 752 mmHg 71%
    02:00 +14°C° 0 mm 3 mps 752 mmHg 75%
    03:00 +14°C° 0 mm 3 mps 752 mmHg 78%
    04:00 +13°C° 0 mm 3 mps 752 mmHg 81%
    05:00 +14°C° 0 mm 3 mps 752 mmHg 81%
    06:00 +14°C° 0 mm 3 mps 752 mmHg 81%
    07:00 +14°C° 0 mm 3 mps 753 mmHg 81%
    08:00 +18°C° 0 mm 3 mps 753 mmHg 72%
    09:00 +20°C° 0 mm 3 mps 753 mmHg 62%
    10:00 +24°C° 0 mm 3 mps 753 mmHg 53%
    11:00 +25°C° 0 mm 3 mps 752 mmHg 51%
    12:00 +26°C° 0 mm 3 mps 752 mmHg 49%
    13:00 +26°C° 0 mm 3 mps 751 mmHg 47%
    14:00 +26°C° 0 mm 3 mps 751 mmHg 49%
    15:00 +26°C° 0 mm 2 mps 751 mmHg 50%
    16:00 +26°C° 0 mm 2 mps 750 mmHg 52%
    17:00 +23°C° 0 mm 2 mps 751 mmHg 62%
    18:00 +20°C° 0 mm 2 mps 751 mmHg 72%
    19:00 +19°C° 0 mm 1 mps 751 mmHg 82%
    20:00 +19°C° 0 mm 1 mps 752 mmHg 85%
    21:00 +18°C° 0 mm 1 mps 752 mmHg 88%
    22:00 +18°C° 0 mm 1 mps 752 mmHg 92%
    23:00 +18°C° 0 mm 1 mps 752 mmHg 93%

    22 August, Tuesday

    Time Temperature Precipitation Wind Pressure Humidity
    00:00 +18°C° 0 mm 1 mps 752 mmHg 94%
    01:00 +16°C° 0 mm 1 mps 752 mmHg 95%
    02:00 +16°C° 0 mm 1 mps 751 mmHg 95%
    03:00 +16°C° 0 mm 1 mps 751 mmHg 96%
    04:00 +16°C° 0 mm 1 mps 751 mmHg 97%
    05:00 +18°C° 0 mm 1 mps 752 mmHg 97%
    06:00 +18°C° 0 mm 1 mps 752 mmHg 97%
    07:00 +18°C° 0 mm 1 mps 752 mmHg 98%
    08:00 +21°C° 0 mm 1 mps 753 mmHg 85%
    09:00 +24°C° 0 mm 1 mps 753 mmHg 71%
    10:00 +27°C° 0 mm 1 mps 753 mmHg 58%
    11:00 +28°C° 0 mm 2 mps 752 mmHg 56%
    12:00 +28°C° 0 mm 2 mps 752 mmHg 53%
    13:00 +29°C° 0 mm 2 mps 751 mmHg 50%
    14:00 +28°C° 0 mm 3 mps 751 mmHg 52%
    15:00 +28°C° 0 mm 3 mps 751 mmHg 55%
    16:00 +28°C° 0 mm 3 mps 751 mmHg 57%
    17:00 +26°C° 0 mm 3 mps 751 mmHg 67%
    18:00 +23°C° 0 mm 2 mps 752 mmHg 77%
    19:00 +20°C° 0 mm 2 mps 752 mmHg 87%
    20:00 +20°C° 0 mm 2 mps 753 mmHg 89%
    21:00 +20°C° 0 mm 2 mps 753 mmHg 91%
    22:00 +19°C° 0 mm 2 mps 753 mmHg 93%
    23:00 +19°C° 0 mm 2 mps 753 mmHg 93%
    Show more